Location: Bailleul
(50.3375°N, 2.8513°E)
Time: 13:43:01
(UTC+00:00)

Cosmos 1867 - Visible Passes

Search period start: 22 October 2021 00:00
Search period end: 01 November 2021 00:00
Orbit: 773 x 803 km, 65.0° (Epoch: 21 October)

Date Brightness Start Highest point End Pass type
(mag) Time Alt. Az. Time Alt. Az. Time Alt. Az.
22 Oct 6.5 05:07:22 10° SSE 05:10:50 17° ESE 05:14:20 10° ENE visible
23 Oct 6.7 04:37:03 10° SE 04:39:24 13° ESE 04:41:45 10° E visible
24 Oct 4.6 05:45:05 10° SSW 05:50:22 53° ESE 05:55:42 10° NE visible
25 Oct 5.0 05:13:42 10° S 05:18:46 41° ESE 05:23:53 10° NE visible
26 Oct 5.4 04:42:27 10° S 04:47:12 31° ESE 04:51:59 10° NE visible
27 Oct 5.8 04:11:23 10° SSE 04:15:41 24° ESE 04:20:00 10° ENE visible
27 Oct 3.6 05:53:20 10° SW 05:58:47 74° NW 06:04:19 10° NE visible
28 Oct 6.1 03:40:33 10° SSE 03:44:11 18° ESE 03:47:51 10° ENE visible
28 Oct 3.6 05:21:35 10° SW 05:27:04 89° SE 05:32:36 10° NE visible
29 Oct 6.3 03:10:07 10° SE 03:12:44 14° ESE 03:15:22 10° ENE visible
29 Oct 3.8 04:49:57 10° SSW 04:55:23 71° SE 05:00:53 10° NE visible
30 Oct 4.2 04:19:18 15° SSW 04:23:44 55° ESE 04:29:07 10° NE visible
30 Oct 4.2 06:02:28 10° WSW 06:07:35 39° NW 06:12:44 10° NNE visible
31 Oct 4.6 03:49:36 26° S 03:52:08 43° ESE 03:57:18 10° NE visible
31 Oct 3.9 05:30:29 10° WSW 05:35:45 46° NW 05:41:04 10° NE visible
